Regional Weather Roundup
Issued by NWS

Home | Current Version | Previous Version | Text Only | Print | Product List | Glossary Off
Versions: 1 2 3 4 5 6 7 8 9 10 11 12 13 14 15 16 17 18 19 20 21 22 23 24 25 26 27 28 29 30 31 32 33 34 35 36 37 38 39 40 41 42 43 44 45 46 47 48 49 50

000
ASUS43 KLOT 260106
RWRIL

ILLINOIS REGIONAL WEATHER ROUNDUP
NATIONAL WEATHER SERVICE CHICAGO/ROMEOVILLE IL
700 PM CST THU DEC 25 2014

NOTE: "FAIR" INDICATES FEW OR NO CLOUDS BELOW 12,000 FEET WITH NO
SIGNIFICANT WEATHER AND/OR OBSTRUCTIONS TO VISIBILITY.

* THESE STATIONS ARE NOT UNDER NWS QUALITY CONTROL. THEY ALSO MAY NOT
  REPORT WEATHER SUCH AS PRECIPITATION OR FOG.

ILZ001-002-007-009-015-016-024-260200-
NORTHWEST ILLINOIS

CITY           SKY/WX    TMP DP  RH WIND       PRES   REMARKS
MOLINE         PTCLDY    42  32  67 SE10      29.89R
STERLING*      CLEAR     39  32  75 S6        29.92S WCI  35
SAVANNA*       PTCLDY    40  33  75 S12       29.90R
$$

ILZ003-004-008-010-011-017-018-260200-
NORTH CENTRAL ILLINOIS

CITY           SKY/WX    TMP DP  RH WIND       PRES   REMARKS
ROCKFORD       CLOUDY    40  33  76 S15       29.94S
FREEPORT*      PTCLDY    39  33  78 S14       29.92R WCI  31
ROCHELLE*      MOCLDY    38  35  89 S15       29.93F WCI  29
DE KALB*       CLOUDY    37  33  86 S17       29.96S WCI  27
PERU*          PTCLDY    41  36  80 SE15      29.95F
$$

ILZ005-006-012>014-019>023-260200-
NORTHEAST ILLINOIS

CITY           SKY/WX    TMP DP  RH WIND       PRES   REMARKS
CHICAGO-OHARE  CLOUDY    40  34  79 S17       29.99R
CHICAGO-MIDWAY CLOUDY    42  35  76 S15G21    30.01S
AURORA         CLOUDY    40  34  79 S14       29.98S
LANSING*       CLOUDY    38  34  85 S10       30.04R WCI  31
JOLIET*        CLOUDY    39  34  83 S9        30.01R WCI  33
WAUKEGAN       CLOUDY    40  33  76 S15       29.96F
DUPAGE AIRPORT CLOUDY    40  34  79 S12       29.98S
KANKAKEE*      MOCLDY    38  34  85 SE9       30.04S WCI  32
WHEELING       CLOUDY    41  34  76 S14       30.01R
MORRIS*        MOCLDY    39  36  91 S12G18    29.99S WCI  31
ROMEOVILLE*    CLOUDY    39  35  85 S14       30.00S WCI  30
NORTHERLY ISL    N/A     41  34  76 SW14        N/A
$$

LMZ740>746-260200-
SOUTHERN LAKE MICHIGAN

STATION/POSITION SKY/WX   TEMP    WIND        PRES    VSBY  WAVE
                          AIR SEA DIR/SP/G                  HT/PER
                          (F)     (DEG/KT/KT) (MB)    (MI)  (FT/S)
WAUKEGAN HARBOR            40                   N/A
HARRISON CRIB              40     180/ 25/ 28   N/A
BURNHAM HARBOR             41     170/  7/ 15   N/A
CALUMET HARBOR             40     170/ 11/ 14 1015.5R
MICHIGAN CITY              38     150/ 14/ 17   N/A
$$

ILZ025>027-034>036-040-047-049-050-058-095>099-260200-
WEST-CENTRAL ILLINOIS

CITY           SKY/WX    TMP DP  RH WIND       PRES   REMARKS
QUINCY         CLEAR     42  30  62 SE10      29.87S
GALESBURG*     MOCLDY    41  34  76 SE9       29.90S
MACOMB*        PTCLDY    39  34  81 SE14      29.92S WCI  31
JACKSONVILLE*  CLEAR     44  36  71 SE16G22   29.94S
PITTSFIELD*    FAIR      43  33  67 SE10      29.92R
$$

ILZ028>032-037-038-041>044-048-051>054-059>061-260200-
CENTRAL ILLINOIS

CITY           SKY/WX    TMP DP  RH WIND       PRES   REMARKS
PONTIAC        PTCLDY    39  36  88 SE12      30.00F WCI  32
BLOOMINGTON    PTCLDY    39  36  89 S16       29.99F WCI  30
DECATUR        CLEAR     41  34  76 S14       30.02S
PEORIA         PTCLDY    44  34  67 S14G23    29.95S
LACON*         PTCLDY    41  34  77 S15       29.94F
LINCOLN*       PTCLDY    41  36  80 SE14      29.98F
SPRINGFIELD    PTCLDY    44  34  67 S20G28    29.98R
TAYLORVILLE    PTCLDY    41  34  75 S16       30.00S
$$

ILZ033-039-045-046-055>057-062-063-260200-
EAST-CENTRAL ILLINOIS

CITY           SKY/WX    TMP DP  RH WIND       PRES   REMARKS
CHAMPAIGN      CLEAR     39  33  79 S13       30.03S WCI  31
DANVILLE*      CLEAR     35  32  88 SE6       30.03F WCI  30
RANTOUL*       CLEAR     38  35  89 SE9       30.03S WCI  32
MATTOON        CLEAR     40  34  79 S12       30.05R
PARIS*         CLEAR     36  34  92 SE9       30.08R WCI  29
$$

ILZ079-100>102-260200-
SOUTHWEST ILLINOIS

CITY           SKY/WX    TMP DP  RH WIND       PRES   REMARKS
ALTON          CLEAR     45  30  57 S14G21    30.00R
BELLEVILLE     CLOUDY    43  39  83 S14G24    30.02R
CAHOKIA*       PTCLDY    45  36  70 S14       30.00S
SPARTA*        CLEAR     43  36  77 S13       30.06R
$$

ILZ064>066-069>071-074>076-080>082-084>086-088>090-092>094-260200-
SOUTH-CENTRAL ILLINOIS

CITY           SKY/WX    TMP DP  RH WIND       PRES   REMARKS
CARBONDALE     PTCLDY    41  33  73 SE9       30.08S
CAIRO*         CLEAR     45  35  67 S5        30.10S
EFFINGHAM*     CLEAR     41  31  68 SE6       30.08R
MARION         CLEAR     43  34  70 S8        30.09S
MT. VERNON     CLEAR     41  30  65 S7        30.08S
CENTRALIA*     PTCLDY    42  33  71 S15       30.05R
SALEM*         PTCLDY    45  35  67 S13       30.06R
METROPOLIS*    CLEAR     43  34  70 SE3       30.10S
$$

ILZ067-068-072-073-078-083-087-091-260200-
SOUTHEAST ILLINOIS

CITY           SKY/WX    TMP DP  RH WIND       PRES   REMARKS
LAWRENCEVILLE  CLEAR     38  34  85 SE10      30.11S WCI  31
FLORA*         CLEAR     39  34  82 S7        30.08R WCI  34
FAIRFIELD*     CLEAR     43  34  72 S8        30.08S
HARRISBURG*    CLEAR     38  33  82 SE5       30.12S WCI  35
ROBINSON*      CLEAR     39  34  83 S12       30.10S WCI  31
CARMI*         CLEAR     40  36  87 SE10      30.10F
$$

ABBREVIATIONS USED IN REMARKS
   TC - TEMPERATURE IN CELSIUS
  WCI - WIND CHILL INDEX
   HX - HEAT INDEX
  VSB - VISIBILITY
$$




USA.gov is the U.S. government's official web portal to all federal, state and local government web resources and services.